Weather History for Worcester, MA

Change the Weather History Date:

Thursday, September 15, 2011

  Actual Average Record
Temperature  
Mean Temperature 60 °F 62 °F  
Max Temperature 74 °F 70 °F 92 °F (1915)
Min Temperature 46 °F 53 °F 35 °F (1926)
Degree Days  
Heating Degree Days 5 5  
Month to date heating degree days 25 46  
Since 1 July heating degree days 31 85  
Cooling Degree Days 0 1  
Month to date cooling degree days 42 31  
Year to date cooling degree days 591 457  
Growing Degree Days 10 (Base 50)    
Moisture  
Dew Point 62 °F    
Average Humidity 87    
Maximum Humidity 100    
Minimum Humidity 73    
Precipitation  
Precipitation 0.31 in 0.13 in 2.66 in (1944)
Month to date precipitation 5.19 1.77  
Year to date precipitation 49.29 33.13  
Snow  
Snow 0.00 in 0.00 in 0.00 in (2002)
Month to date snowfall 0.0 0.0  
Since 1 July snowfall 0.0 0.0  
Since 1 September snowfall 0.0 0.0  
Snow Depth 0.00 in    
Sea Level Pressure  
Sea Level Pressure 29.92 in    
Wind  
Wind Speed 11 mph (WSW)    
Max Wind Speed 25 mph    
Max Gust Speed 33 mph    
Visibility 5 miles    
Events Fog , Rain , Thunderstorm    
T = Trace of Precipitation, MM = Missing Value Source: NWS Daily Summary

Daily Weather History Graph

Daily Weather History Graph

Search for Another Location

Airport:

Trip Planner

Search our weather history database for the weather conditions in past years. The results will help you decide how hot, cold, wet, or windy it might be!

Date:

Astronomy

Sep. 15, 2011 Rise Set
Actual Time 6:27 AM EDT 6:57 PM EDT
Civil Twilight 5:58 AM EDT 7:25 PM EDT
Nautical Twilight 5:25 AM EDT 7:58 PM EDT
Astronomical Twilight 4:51 AM EDT 8:33 PM EDT
Moon 8:06 PM EDT (9/15) 9:37 AM EDT (9/15)
Length of Visible Light 13h 26m
Length of Day
12h 30m
Waning Gibbous, 91% of the Moon is Illuminated
Sep 15
Waning Gibbous
Sep 20
Last Quarter
Sep 27
New
Oct 3
First Quarter
Oct 11
Full

Hourly Weather History & Observations

Time (EDT) Temp. Dew Point Humidity Pressure Visibility Wind Dir Wind Speed Gust Speed Precip Events Conditions
12:14 AM 66.2 °F 64.4 °F 94% 29.97 in 4.0 mi SSW 4.6 mph - N/A   Scattered Clouds
12:23 AM 66.2 °F 66.2 °F 100% 29.97 in 3.0 mi SSW 4.6 mph - N/A   Mostly Cloudy
12:25 AM 66.2 °F 66.2 °F 100% 29.97 in 2.0 mi SSW 5.8 mph - N/A   Mostly Cloudy
12:30 AM 66.2 °F 66.2 °F 100% 29.97 in 0.8 mi SSW 5.8 mph - N/A   Mostly Cloudy
12:46 AM 66.2 °F 66.2 °F 100% 29.97 in 0.5 mi SW 6.9 mph - N/A Fog Fog
12:54 AM 66.0 °F 66.0 °F 100% 29.95 in 0.5 mi SSW 9.2 mph - N/A Fog Fog
1:09 AM 66.2 °F 66.2 °F 100% 29.96 in 0.5 mi SW 5.8 mph - N/A Fog Fog
1:19 AM 66.2 °F 66.2 °F 100% 29.96 in 0.8 mi SW 6.9 mph - N/A Thunderstorm Overcast
1:26 AM 66.2 °F 66.2 °F 100% 29.97 in 1.0 mi SW 6.9 mph - N/A Thunderstorm Overcast
1:54 AM 66.0 °F 66.0 °F 100% 29.95 in 1.5 mi SSW 8.1 mph - 0.10 in Rain , Thunderstorm Heavy Thunderstorms and Rain
2:02 AM 66.2 °F 66.2 °F 100% 29.96 in 3.0 mi SW 10.4 mph - 0.04 in Rain , Thunderstorm Thunderstorms and Rain
2:09 AM 64.4 °F 64.4 °F 100% 29.94 in 1.8 mi SSW 8.1 mph - 0.12 in Rain , Thunderstorm Heavy Thunderstorms and Rain
2:16 AM 66.2 °F 64.4 °F 94% 29.95 in 3.0 mi SW 8.1 mph - 0.19 in Rain , Thunderstorm Light Thunderstorms and Rain
2:27 AM 64.4 °F 64.4 °F 100% 29.94 in 8.0 mi WSW 4.6 mph - 0.19 in Rain Light Rain
2:54 AM 64.0 °F 64.0 °F 100% 29.91 in 6.0 mi SW 4.6 mph - 0.19 in   Scattered Clouds
3:14 AM 64.4 °F 64.4 °F 100% 29.92 in 5.0 mi SSW 5.8 mph - N/A   Scattered Clouds
3:18 AM 64.4 °F 64.4 °F 100% 29.92 in 1.8 mi SSW 6.9 mph - N/A   Mostly Cloudy
3:24 AM 64.4 °F 64.4 °F 100% 29.92 in 0.2 mi SSW 5.8 mph - N/A Fog Fog
3:36 AM 64.4 °F 64.4 °F 100% 29.92 in 0.2 mi SSW 6.9 mph - N/A Fog Fog
3:54 AM 66.2 °F 66.2 °F 100% 29.91 in 0.2 mi SW 5.8 mph - N/A Fog Fog
4:02 AM 64.4 °F 64.4 °F 100% 29.91 in 0.5 mi SW 6.9 mph - N/A Fog Fog
4:11 AM 66.2 °F 66.2 °F 100% 29.91 in 2.0 mi SW 6.9 mph - N/A   Overcast
4:54 AM 66.0 °F 66.0 °F 100% 29.90 in 2.0 mi SSW 5.8 mph - N/A   Overcast
5:01 AM 66.2 °F 66.2 °F 100% 29.91 in 1.0 mi South 5.8 mph - N/A   Overcast
5:08 AM 66.2 °F 66.2 °F 100% 29.91 in 0.2 mi SSW 8.1 mph - N/A Fog Fog
5:18 AM 66.2 °F 66.2 °F 100% 29.91 in 0.2 mi SW 6.9 mph - N/A Fog Fog
5:54 AM 66.0 °F 66.0 °F 100% 29.90 in 0.2 mi SSW 5.8 mph - N/A Fog Fog
6:07 AM 66.2 °F 66.2 °F 100% 29.90 in 0.2 mi SW 5.8 mph - N/A Fog Fog
6:44 AM 66.2 °F 66.2 °F 100% 29.90 in 0.2 mi SW 6.9 mph - N/A Fog Fog
6:54 AM 66.0 °F 66.0 °F 100% 29.89 in 0.2 mi SW 6.9 mph - N/A Fog Fog
7:04 AM 66.2 °F 66.2 °F 100% 29.90 in 0.2 mi South 8.1 mph - N/A Fog Fog
7:14 AM 66.2 °F 66.2 °F 100% 29.90 in 0.2 mi SW 9.2 mph - N/A Fog Fog
7:31 AM 66.2 °F 66.2 °F 100% 29.90 in 0.2 mi SW 9.2 mph - N/A Fog Fog
7:49 AM 66.2 °F 66.2 °F 100% 29.90 in 1.0 mi SW 9.2 mph - N/A   Overcast
7:54 AM 66.0 °F 66.0 °F 100% 29.89 in 1.0 mi SW 9.2 mph - N/A   Overcast
8:08 AM 66.2 °F 66.2 °F 100% 29.90 in 2.5 mi SSW 8.1 mph - N/A   Overcast
8:18 AM 66.2 °F 66.2 °F 100% 29.90 in 2.5 mi SW 10.4 mph - N/A   Overcast
8:22 AM 66.2 °F 66.2 °F 100% 29.90 in 3.0 mi SW 9.2 mph - N/A   Overcast
8:32 AM 66.2 °F 66.2 °F 100% 29.89 in 2.5 mi SW 9.2 mph - N/A   Overcast
8:39 AM 66.2 °F 66.2 °F 100% 29.89 in 3.0 mi SW 10.4 mph - N/A   Overcast
8:54 AM 66.9 °F 66.9 °F 100% 29.88 in 3.0 mi SW 10.4 mph - N/A   Overcast
9:01 AM 66.2 °F 66.2 °F 100% 29.89 in 4.0 mi SW 9.2 mph - N/A   Overcast
9:54 AM 69.8 °F 66.2 °F 88% 29.90 in 4.0 mi WSW 10.4 mph - N/A   Mostly Cloudy
10:09 AM 71.6 °F 66.2 °F 83% 29.90 in 5.0 mi SSW 12.7 mph - N/A   Overcast
10:19 AM 71.6 °F 66.2 °F 83% 29.90 in 6.0 mi SSW 9.2 mph - N/A   Overcast
10:33 AM 71.6 °F 66.2 °F 83% 29.90 in 7.0 mi SW 8.1 mph - 0.00 in Rain Light Rain
10:54 AM 72.0 °F 66.0 °F 81% 29.89 in 8.0 mi WSW 13.8 mph - 0.00 in   Partly Cloudy
11:54 AM 73.0 °F 64.0 °F 73% 29.88 in 10.0 mi WSW 10.4 mph - N/A   Mostly Cloudy
12:54 PM 66.9 °F 61.0 °F 81% 29.88 in 8.0 mi NW 17.3 mph 23.0 mph 0.00 in Rain Light Rain
1:09 PM 66.2 °F 62.6 °F 88% 29.88 in 5.0 mi NW 13.8 mph - 0.01 in Rain Rain
1:28 PM 68.0 °F 62.6 °F 83% 29.87 in 10.0 mi NW 9.2 mph - 0.01 in   Mostly Cloudy
1:54 PM 70.0 °F 57.0 °F 63% 29.86 in 10.0 mi NW 13.8 mph - 0.01 in   Scattered Clouds
2:54 PM 64.9 °F 55.9 °F 73% 29.85 in 10.0 mi WNW 8.1 mph 17.3 mph N/A   Mostly Cloudy
3:54 PM 63.0 °F 55.9 °F 78% 29.84 in 10.0 mi WNW 5.8 mph - N/A   Mostly Cloudy
4:54 PM 61.0 °F 57.0 °F 87% 29.86 in 10.0 mi NW 10.4 mph - N/A   Scattered Clouds
5:03 PM 60.8 °F 55.4 °F 82% 29.87 in 10.0 mi NW 12.7 mph - N/A   Mostly Cloudy
5:50 PM 60.8 °F 55.4 °F 82% 29.89 in 10.0 mi NW 12.7 mph - N/A   Overcast
5:54 PM 59.0 °F 55.0 °F 87% 29.88 in 10.0 mi NW 11.5 mph - N/A   Overcast
6:07 PM 59.0 °F 55.4 °F 88% 29.89 in 10.0 mi NW 8.1 mph - N/A   Overcast
6:54 PM 57.9 °F 54.0 °F 87% 29.90 in 10.0 mi NW 11.5 mph 21.9 mph N/A   Overcast
7:49 PM 55.4 °F 51.8 °F 88% 29.93 in 10.0 mi NW 17.3 mph 24.2 mph N/A   Overcast
7:54 PM 55.0 °F 51.1 °F 86% 29.93 in 10.0 mi NW 18.4 mph 26.5 mph 0.00 in   Overcast
8:54 PM 53.1 °F 50.0 °F 89% 29.97 in 10.0 mi NW 15.0 mph - 0.00 in Rain Light Rain
9:23 PM 50.0 °F 46.4 °F 87% 29.98 in 10.0 mi NNW 19.6 mph 31.1 mph 0.01 in   Overcast
9:33 PM 50.0 °F 46.4 °F 87% 29.98 in 10.0 mi NW 13.8 mph 26.5 mph 0.01 in Rain Light Rain
9:47 PM 48.2 °F 46.4 °F 93% 29.99 in 10.0 mi NW 13.8 mph 21.9 mph 0.01 in Rain Light Rain
9:54 PM 48.9 °F 46.0 °F 90% 29.99 in 10.0 mi NW 15.0 mph 23.0 mph 0.01 in Rain Light Rain
10:54 PM 48.0 °F 43.0 °F 83% 29.99 in 10.0 mi NW 16.1 mph 26.5 mph 0.00 in   Mostly Cloudy
11:54 PM 46.9 °F 42.1 °F 83% 30.01 in 10.0 mi NW 16.1 mph 24.2 mph N/A   Clear